owner,sensor,date,latitude,longitude,vertical_datum,sea_water_practical_salinity,qcFlag 
SCCF RECON,ioos:station:SCCF:51:1,2011-03-01T00:00:00Z,26.5545,-82.1715,1.929,32.93,1111122 
SCCF RECON,ioos:station:SCCF:51:1,2011-03-01T01:00:00Z,26.5545,-82.1715,1.988,33.81,1111122 
SCCF RECON,ioos:station:SCCF:51:1,2011-03-01T02:00:00Z,26.5545,-82.1715,2.013,33.82,1111122 
SCCF RECON,ioos:station:SCCF:51:1,2011-03-01T03:00:00Z,26.5545,-82.1715,1.992,33.84,1111122 
SCCF RECON,ioos:station:SCCF:51:1,2011-03-01T04:00:00Z,26.5545,-82.1715,1.934,32.92,1111122 
SCCF RECON,ioos:station:SCCF:51:1,2011-03-01T05:00:00Z,26.5545,-82.1715,1.862,32.76,1111122 
SCCF RECON,ioos:station:SCCF:51:1,2011-03-01T06:00:00Z,26.5545,-82.1715,1.774,32.68,1111122 
SCCF RECON,ioos:station:SCCF:51:1,2011-03-01T07:00:00Z,26.5545,-82.1715,1.669,32.76,1111122 
SCCF RECON,ioos:station:SCCF:51:1,2011-03-01T08:00:00Z,26.5545,-82.1715,1.547,32.91,1111122 
SCCF RECON,ioos:station:SCCF:51:1,2011-03-01T09:00:00Z,26.5545,-82.1715,1.446,32.98,1111122 
SCCF RECON,ioos:station:SCCF:51:1,2011-03-01T10:00:00Z,26.5545,-82.1715,1.353,33.02,1111122 
SCCF RECON,ioos:station:SCCF:51:1,2011-03-01T11:00:00Z,26.5545,-82.1715,1.294,33.01,1111122 
SCCF RECON,ioos:station:SCCF:51:1,2011-03-01T12:00:00Z,26.5545,-82.1715,1.327,32.93,1111122 
SCCF RECON,ioos:station:SCCF:51:1,2011-03-01T13:00:00Z,26.5545,-82.1715,1.411,32.91,1111122 
SCCF RECON,ioos:station:SCCF:51:1,2011-03-01T14:00:00Z,26.5545,-82.1715,1.53,32.93,1111122 
SCCF RECON,ioos:station:SCCF:51:1,2011-03-01T15:00:00Z,26.5545,-82.1715,1.643,33.53,1111122 
SCCF RECON,ioos:station:SCCF:51:1,2011-03-01T16:00:00Z,26.5545,-82.1715,1.737,33.63,1111122 
SCCF RECON,ioos:station:SCCF:51:1,2011-03-01T17:00:00Z,26.5545,-82.1715,1.786,33.77,1111122 
SCCF RECON,ioos:station:SCCF:51:1,2011-03-01T18:00:00Z,26.5545,-82.1715,1.799,33.55,1111122 
SCCF RECON,ioos:station:SCCF:51:1,2011-03-01T19:00:00Z,26.5545,-82.1715,1.779,33.29,1111122 
SCCF RECON,ioos:station:SCCF:51:1,2011-03-01T20:00:00Z,26.5545,-82.1715,1.732,33.13,1111122 
SCCF RECON,ioos:station:SCCF:51:1,2011-03-01T21:00:00Z,26.5545,-82.1715,1.709,32.98,1111122 
SCCF RECON,ioos:station:SCCF:51:1,2011-03-01T22:00:00Z,26.5545,-82.1715,1.697,33.0,1111122 
SCCF RECON,ioos:station:SCCF:51:1,2011-03-01T23:00:00Z,26.5545,-82.1715,1.741,33.01,1111122 
SCCF RECON,ioos:station:SCCF:51:1,2011-03-02T00:00:00Z,26.5545,-82.1715,1.821,33.62,1111122 
SCCF RECON,ioos:station:SCCF:51:1,2011-03-02T01:00:00Z,26.5545,-82.1715,1.909,33.78,1111122 
SCCF RECON,ioos:station:SCCF:51:1,2011-03-02T02:00:00Z,26.5545,-82.1715,2.021,33.87,1111122 
SCCF RECON,ioos:station:SCCF:51:1,2011-03-02T03:00:00Z,26.5545,-82.1715,2.066,33.89,1111122 
SCCF RECON,ioos:station:SCCF:51:1,2011-03-02T04:00:00Z,26.5545,-82.1715,2.061,33.9,1111122 
SCCF RECON,ioos:station:SCCF:51:1,2011-03-02T05:00:00Z,26.5545,-82.1715,2.0,33.9,1111122 
SCCF RECON,ioos:station:SCCF:51:1,2011-03-02T06:00:00Z,26.5545,-82.1715,1.916,33.81,1111122 
SCCF RECON,ioos:station:SCCF:51:1,2011-03-02T07:00:00Z,26.5545,-82.1715,1.802,33.71,1111122 
SCCF RECON,ioos:station:SCCF:51:1,2011-03-02T08:00:00Z,26.5545,-82.1715,1.694,33.45,1111122 
SCCF RECON,ioos:station:SCCF:51:1,2011-03-02T09:00:00Z,26.5545,-82.1715,1.595,33.14,1111122 
SCCF RECON,ioos:station:SCCF:51:1,2011-03-02T10:00:00Z,26.5545,-82.1715,1.497,32.78,1111122 
SCCF RECON,ioos:station:SCCF:51:1,2011-03-02T11:00:00Z,26.5545,-82.1715,1.416,32.76,1111122 
SCCF RECON,ioos:station:SCCF:51:1,2011-03-02T12:00:00Z,26.5545,-82.1715,1.387,32.76,1111122 
SCCF RECON,ioos:station:SCCF:51:1,2011-03-02T13:00:00Z,26.5545,-82.1715,1.435,32.9,1111122 
SCCF RECON,ioos:station:SCCF:51:1,2011-03-02T14:00:00Z,26.5545,-82.1715,1.52,33.18,1111122 
SCCF RECON,ioos:station:SCCF:51:1,2011-03-02T15:00:00Z,26.5545,-82.1715,1.623,33.6,1111122 
SCCF RECON,ioos:station:SCCF:51:1,2011-03-02T16:00:00Z,26.5545,-82.1715,1.709,33.71,1111122 
SCCF RECON,ioos:station:SCCF:51:1,2011-03-02T17:00:00Z,26.5545,-82.1715,1.766,33.85,1111122 
SCCF RECON,ioos:station:SCCF:51:1,2011-03-02T18:00:00Z,26.5545,-82.1715,1.766,33.61,1111122 
SCCF RECON,ioos:station:SCCF:51:1,2011-03-02T19:00:00Z,26.5545,-82.1715,1.71,33.43,1111122 
SCCF RECON,ioos:station:SCCF:51:1,2011-03-02T20:00:00Z,26.5545,-82.1715,1.641,33.22,1111122 
SCCF RECON,ioos:station:SCCF:51:1,2011-03-02T21:00:00Z,26.5545,-82.1715,1.596,33.12,1111122 
SCCF RECON,ioos:station:SCCF:51:1,2011-03-02T22:00:00Z,26.5545,-82.1715,1.56,33.13,1111122 
SCCF RECON,ioos:station:SCCF:51:1,2011-03-02T23:00:00Z,26.5545,-82.1715,1.54,33.13,1111122 
SCCF RECON,ioos:station:SCCF:51:1,2011-03-03T00:00:00Z,26.5545,-82.1715,1.587,33.16,1111122 
SCCF RECON,ioos:station:SCCF:51:1,2011-03-03T01:00:00Z,26.5545,-82.1715,1.667,33.32,1111122 
SCCF RECON,ioos:station:SCCF:51:1,2011-03-03T02:00:00Z,26.5545,-82.1715,1.748,33.31,1111122 
SCCF RECON,ioos:station:SCCF:51:1,2011-03-03T03:00:00Z,26.5545,-82.1715,1.84,33.32,1111122 
SCCF RECON,ioos:station:SCCF:51:1,2011-03-03T04:00:00Z,26.5545,-82.1715,1.899,33.85,1111122 
SCCF RECON,ioos:station:SCCF:51:1,2011-03-03T05:00:00Z,26.5545,-82.1715,1.912,33.83,1111122 
SCCF RECON,ioos:station:SCCF:51:1,2011-03-03T06:00:00Z,26.5545,-82.1715,1.869,33.69,1111122 
SCCF RECON,ioos:station:SCCF:51:1,2011-03-03T07:00:00Z,26.5545,-82.1715,1.794,33.24,1111122 
SCCF RECON,ioos:station:SCCF:51:1,2011-03-03T08:00:00Z,26.5545,-82.1715,1.694,33.12,1111122 
SCCF RECON,ioos:station:SCCF:51:1,2011-03-03T09:00:00Z,26.5545,-82.1715,1.597,33.06,1111122 
SCCF RECON,ioos:station:SCCF:51:1,2011-03-03T10:00:00Z,26.5545,-82.1715,1.526,33.08,1111122 
SCCF RECON,ioos:station:SCCF:51:1,2011-03-03T11:00:00Z,26.5545,-82.1715,1.486,33.07,1111122 
SCCF RECON,ioos:station:SCCF:51:1,2011-03-03T12:00:00Z,26.5545,-82.1715,1.491,33.06,1111122 
SCCF RECON,ioos:station:SCCF:51:1,2011-03-03T13:00:00Z,26.5545,-82.1715,1.57,33.12,1111122 
SCCF RECON,ioos:station:SCCF:51:1,2011-03-03T14:00:00Z,26.5545,-82.1715,1.668,33.24,1111122 
SCCF RECON,ioos:station:SCCF:51:1,2011-03-03T15:00:00Z,26.5545,-82.1715,1.779,33.44,1111122 
SCCF RECON,ioos:station:SCCF:51:1,2011-03-03T16:00:00Z,26.5545,-82.1715,1.871,33.95,1111122 
SCCF RECON,ioos:station:SCCF:51:1,2011-03-03T17:00:00Z,26.5545,-82.1715,1.928,33.88,1111122 
SCCF RECON,ioos:station:SCCF:51:1,2011-03-03T18:00:00Z,26.5545,-82.1715,1.921,33.4,1111122 
SCCF RECON,ioos:station:SCCF:51:1,2011-03-03T19:00:00Z,26.5545,-82.1715,1.899,33.51,1111122 
SCCF RECON,ioos:station:SCCF:51:1,2011-03-03T20:00:00Z,26.5545,-82.1715,1.846,33.14,1111122 
SCCF RECON,ioos:station:SCCF:51:1,2011-03-03T21:00:00Z,26.5545,-82.1715,1.778,33.16,1111122 
SCCF RECON,ioos:station:SCCF:51:1,2011-03-03T22:00:00Z,26.5545,-82.1715,1.719,33.11,1111122 
SCCF RECON,ioos:station:SCCF:51:1,2011-03-03T23:00:00Z,26.5545,-82.1715,1.669,33.09,1111122 
SCCF RECON,ioos:station:SCCF:51:1,2011-03-04T00:00:00Z,26.5545,-82.1715,1.672,33.12,1111122 
SCCF RECON,ioos:station:SCCF:51:1,2011-03-04T01:00:00Z,26.5545,-82.1715,1.72,33.43,1111122 
SCCF RECON,ioos:station:SCCF:51:1,2011-03-04T02:00:00Z,26.5545,-82.1715,1.825,33.27,1111122 
SCCF RECON,ioos:station:SCCF:51:1,2011-03-04T03:00:00Z,26.5545,-82.1715,1.944,33.57,1111122 
SCCF RECON,ioos:station:SCCF:51:1,2011-03-04T04:00:00Z,26.5545,-82.1715,2.021,34.0,1111122 
SCCF RECON,ioos:station:SCCF:51:1,2011-03-04T05:00:00Z,26.5545,-82.1715,2.027,33.71,1111122 
SCCF RECON,ioos:station:SCCF:51:1,2011-03-04T06:00:00Z,26.5545,-82.1715,1.963,33.38,1111122 
SCCF RECON,ioos:station:SCCF:51:1,2011-03-04T07:00:00Z,26.5545,-82.1715,1.871,33.32,1111122 
SCCF RECON,ioos:station:SCCF:51:1,2011-03-04T08:00:00Z,26.5545,-82.1715,1.775,33.5,1111122 
SCCF RECON,ioos:station:SCCF:51:1,2011-03-04T09:00:00Z,26.5545,-82.1715,1.679,33.49,1111122 
SCCF RECON,ioos:station:SCCF:51:1,2011-03-04T10:00:00Z,26.5545,-82.1715,1.598,33.33,1111122 
SCCF RECON,ioos:station:SCCF:51:1,2011-03-04T11:00:00Z,26.5545,-82.1715,1.532,33.29,1111122 
SCCF RECON,ioos:station:SCCF:51:1,2011-03-04T12:00:00Z,26.5545,-82.1715,1.485,33.34,1111122 
SCCF RECON,ioos:station:SCCF:51:1,2011-03-04T13:00:00Z,26.5545,-82.1715,1.504,33.31,1111122 
SCCF RECON,ioos:station:SCCF:51:1,2011-03-04T14:00:00Z,26.5545,-82.1715,1.593,33.3,1111122 
SCCF RECON,ioos:station:SCCF:51:1,2011-03-04T15:00:00Z,26.5545,-82.1715,1.69,33.49,1111122 
SCCF RECON,ioos:station:SCCF:51:1,2011-03-04T16:00:00Z,26.5545,-82.1715,1.816,33.92,1111122 
SCCF RECON,ioos:station:SCCF:51:1,2011-03-04T17:00:00Z,26.5545,-82.1715,1.916,33.63,1111122 
SCCF RECON,ioos:station:SCCF:51:1,2011-03-04T18:00:00Z,26.5545,-82.1715,1.964,34.16,1111122 
SCCF RECON,ioos:station:SCCF:51:1,2011-03-04T19:00:00Z,26.5545,-82.1715,1.958,33.89,1111122 
SCCF RECON,ioos:station:SCCF:51:1,2011-03-04T20:00:00Z,26.5545,-82.1715,1.889,33.68,1111122 
SCCF RECON,ioos:station:SCCF:51:1,2011-03-04T21:00:00Z,26.5545,-82.1715,1.814,33.55,1111122 
SCCF RECON,ioos:station:SCCF:51:1,2011-03-04T22:00:00Z,26.5545,-82.1715,1.746,33.43,1111122 
SCCF RECON,ioos:station:SCCF:51:1,2011-03-04T23:00:00Z,26.5545,-82.1715,1.712,33.55,1111122 
SCCF RECON,ioos:station:SCCF:51:1,2011-03-05T00:00:00Z,26.5545,-82.1715,1.707,33.55,1111122 
SCCF RECON,ioos:station:SCCF:51:1,2011-03-05T01:00:00Z,26.5545,-82.1715,1.754,33.5,1111122 
SCCF RECON,ioos:station:SCCF:51:1,2011-03-05T02:00:00Z,26.5545,-82.1715,1.834,33.59,1111122 
SCCF RECON,ioos:station:SCCF:51:1,2011-03-05T03:00:00Z,26.5545,-82.1715,1.94,33.79,1111122 
SCCF RECON,ioos:station:SCCF:51:1,2011-03-05T04:00:00Z,26.5545,-82.1715,2.044,34.38,1111122 
SCCF RECON,ioos:station:SCCF:51:1,2011-03-05T05:00:00Z,26.5545,-82.1715,2.12,34.38,1111122 
SCCF RECON,ioos:station:SCCF:51:1,2011-03-05T06:00:00Z,26.5545,-82.1715,2.131,34.25,1111122 
SCCF RECON,ioos:station:SCCF:51:1,2011-03-05T07:00:00Z,26.5545,-82.1715,2.059,33.95,1111122 
SCCF RECON,ioos:station:SCCF:51:1,2011-03-05T08:00:00Z,26.5545,-82.1715,1.969,33.76,1111122 
SCCF RECON,ioos:station:SCCF:51:1,2011-03-05T09:00:00Z,26.5545,-82.1715,1.865,33.7,1111122 
SCCF RECON,ioos:station:SCCF:51:1,2011-03-05T10:00:00Z,26.5545,-82.1715,1.768,33.52,1111122 
SCCF RECON,ioos:station:SCCF:51:1,2011-03-05T11:00:00Z,26.5545,-82.1715,1.681,33.61,1111122 
SCCF RECON,ioos:station:SCCF:51:1,2011-03-05T12:00:00Z,26.5545,-82.1715,1.618,33.61,1111122 
SCCF RECON,ioos:station:SCCF:51:1,2011-03-05T13:00:00Z,26.5545,-82.1715,1.603,33.61,1111122 
SCCF RECON,ioos:station:SCCF:51:1,2011-03-05T14:00:00Z,26.5545,-82.1715,1.655,33.6,1111122 
SCCF RECON,ioos:station:SCCF:51:1,2011-03-05T15:00:00Z,26.5545,-82.1715,1.745,33.58,1111122 
SCCF RECON,ioos:station:SCCF:51:1,2011-03-05T16:00:00Z,26.5545,-82.1715,1.867,33.99,1111122 
SCCF RECON,ioos:station:SCCF:51:1,2011-03-05T17:00:00Z,26.5545,-82.1715,1.987,33.98,1111122 
SCCF RECON,ioos:station:SCCF:51:1,2011-03-05T18:00:00Z,26.5545,-82.1715,2.055,34.05,1111122 
SCCF RECON,ioos:station:SCCF:51:1,2011-03-05T19:00:00Z,26.5545,-82.1715,2.022,33.88,1111122 
SCCF RECON,ioos:station:SCCF:51:1,2011-03-05T20:00:00Z,26.5545,-82.1715,1.946,33.78,1111122 
SCCF RECON,ioos:station:SCCF:51:1,2011-03-05T21:00:00Z,26.5545,-82.1715,1.85,33.54,1111122 
SCCF RECON,ioos:station:SCCF:51:1,2011-03-05T22:00:00Z,26.5545,-82.1715,1.759,33.46,1111122 
SCCF RECON,ioos:station:SCCF:51:1,2011-03-05T23:00:00Z,26.5545,-82.1715,1.674,33.48,1111122 
SCCF RECON,ioos:station:SCCF:51:1,2011-03-06T00:00:00Z,26.5545,-82.1715,1.626,33.59,1111122 
SCCF RECON,ioos:station:SCCF:51:1,2011-03-06T01:00:00Z,26.5545,-82.1715,1.635,33.61,1111122 
SCCF RECON,ioos:station:SCCF:51:1,2011-03-06T02:00:00Z,26.5545,-82.1715,1.704,33.48,1111122 
SCCF RECON,ioos:station:SCCF:51:1,2011-03-06T03:00:00Z,26.5545,-82.1715,1.807,33.5,1111122 
SCCF RECON,ioos:station:SCCF:51:1,2011-03-06T04:00:00Z,26.5545,-82.1715,1.94,34.27,1111122 
SCCF RECON,ioos:station:SCCF:51:1,2011-03-06T05:00:00Z,26.5545,-82.1715,2.04,34.29,1111122 
SCCF RECON,ioos:station:SCCF:51:1,2011-03-06T06:00:00Z,26.5545,-82.1715,2.092,34.2,1111122 
SCCF RECON,ioos:station:SCCF:51:1,2011-03-06T07:00:00Z,26.5545,-82.1715,2.059,34.19,1111122 
SCCF RECON,ioos:station:SCCF:51:1,2011-03-06T08:00:00Z,26.5545,-82.1715,1.988,33.64,1111122 
SCCF RECON,ioos:station:SCCF:51:1,2011-03-06T09:00:00Z,26.5545,-82.1715,1.896,33.69,1111122 
SCCF RECON,ioos:station:SCCF:51:1,2011-03-06T10:00:00Z,26.5545,-82.1715,1.801,33.63,1111122 
SCCF RECON,ioos:station:SCCF:51:1,2011-03-06T11:00:00Z,26.5545,-82.1715,1.714,33.51,1111122 
SCCF RECON,ioos:station:SCCF:51:1,2011-03-06T12:00:00Z,26.5545,-82.1715,1.654,33.37,1111122 
SCCF RECON,ioos:station:SCCF:51:1,2011-03-06T13:00:00Z,26.5545,-82.1715,1.62,33.33,1111122 
SCCF RECON,ioos:station:SCCF:51:1,2011-03-06T14:00:00Z,26.5545,-82.1715,1.632,33.35,1111122 
SCCF RECON,ioos:station:SCCF:51:1,2011-03-06T15:00:00Z,26.5545,-82.1715,1.704,33.44,1111122 
SCCF RECON,ioos:station:SCCF:51:1,2011-03-06T16:00:00Z,26.5545,-82.1715,1.835,33.42,1111122 
SCCF RECON,ioos:station:SCCF:51:1,2011-03-06T17:00:00Z,26.5545,-82.1715,1.956,34.16,1111122 
SCCF RECON,ioos:station:SCCF:51:1,2011-03-06T18:00:00Z,26.5545,-82.1715,2.032,34.19,1111122 
SCCF RECON,ioos:station:SCCF:51:1,2011-03-06T19:00:00Z,26.5545,-82.1715,2.021,34.01,1111122 
SCCF RECON,ioos:station:SCCF:51:1,2011-03-06T20:00:00Z,26.5545,-82.1715,1.959,33.92,1111122 
SCCF RECON,ioos:station:SCCF:51:1,2011-03-06T21:00:00Z,26.5545,-82.1715,1.852,33.57,1111122 
SCCF RECON,ioos:station:SCCF:51:1,2011-03-06T22:00:00Z,26.5545,-82.1715,1.742,33.35,1111122 
SCCF RECON,ioos:station:SCCF:51:1,2011-03-06T23:00:00Z,26.5545,-82.1715,1.642,33.23,1111122 
SCCF RECON,ioos:station:SCCF:51:1,2011-03-07T00:00:00Z,26.5545,-82.1715,1.568,33.24,1111122 
SCCF RECON,ioos:station:SCCF:51:1,2011-03-07T01:00:00Z,26.5545,-82.1715,1.532,33.29,1111122 
SCCF RECON,ioos:station:SCCF:51:1,2011-03-07T02:00:00Z,26.5545,-82.1715,1.536,33.39,1111122 
SCCF RECON,ioos:station:SCCF:51:1,2011-03-07T03:00:00Z,26.5545,-82.1715,1.593,33.53,1111122 
SCCF RECON,ioos:station:SCCF:51:1,2011-03-07T04:00:00Z,26.5545,-82.1715,1.673,33.64,1111122 
SCCF RECON,ioos:station:SCCF:51:1,2011-03-07T05:00:00Z,26.5545,-82.1715,1.76,33.7,1111122 
SCCF RECON,ioos:station:SCCF:51:1,2011-03-07T06:00:00Z,26.5545,-82.1715,1.861,34.06,1111122 
SCCF RECON,ioos:station:SCCF:51:1,2011-03-07T07:00:00Z,26.5545,-82.1715,1.917,34.31,1111122 
SCCF RECON,ioos:station:SCCF:51:1,2011-03-07T08:00:00Z,26.5545,-82.1715,1.905,34.31,1111122 
SCCF RECON,ioos:station:SCCF:51:1,2011-03-07T09:00:00Z,26.5545,-82.1715,1.826,33.82,1111122 
SCCF RECON,ioos:station:SCCF:51:1,2011-03-07T10:00:00Z,26.5545,-82.1715,1.731,33.76,1111122 
SCCF RECON,ioos:station:SCCF:51:1,2011-03-07T11:00:00Z,26.5545,-82.1715,1.651,33.72,1111122 
SCCF RECON,ioos:station:SCCF:51:1,2011-03-07T12:00:00Z,26.5545,-82.1715,1.596,33.77,1111122 
SCCF RECON,ioos:station:SCCF:51:1,2011-03-07T13:00:00Z,26.5545,-82.1715,1.575,33.79,1111122 
SCCF RECON,ioos:station:SCCF:51:1,2011-03-07T14:00:00Z,26.5545,-82.1715,1.606,33.77,1111122 
SCCF RECON,ioos:station:SCCF:51:1,2011-03-07T15:00:00Z,26.5545,-82.1715,1.666,33.76,1111122 
SCCF RECON,ioos:station:SCCF:51:1,2011-03-07T16:00:00Z,26.5545,-82.1715,1.747,33.99,1111122 
SCCF RECON,ioos:station:SCCF:51:1,2011-03-07T17:00:00Z,26.5545,-82.1715,1.852,34.26,1111122 
SCCF RECON,ioos:station:SCCF:51:1,2011-03-07T18:00:00Z,26.5545,-82.1715,1.942,34.23,1111122 
SCCF RECON,ioos:station:SCCF:51:1,2011-03-07T19:00:00Z,26.5545,-82.1715,1.996,34.23,1111122 
SCCF RECON,ioos:station:SCCF:51:1,2011-03-07T20:00:00Z,26.5545,-82.1715,1.972,34.22,1111122 
SCCF RECON,ioos:station:SCCF:51:1,2011-03-07T21:00:00Z,26.5545,-82.1715,1.901,34.25,1111122 
SCCF RECON,ioos:station:SCCF:51:1,2011-03-07T22:00:00Z,26.5545,-82.1715,1.804,34.01,1111122 
SCCF RECON,ioos:station:SCCF:51:1,2011-03-07T23:00:00Z,26.5545,-82.1715,1.695,33.88,1111122 
SCCF RECON,ioos:station:SCCF:51:1,2011-03-08T00:00:00Z,26.5545,-82.1715,1.611,33.82,1111122 
SCCF RECON,ioos:station:SCCF:51:1,2011-03-08T01:00:00Z,26.5545,-82.1715,1.556,33.82,1111122 
SCCF RECON,ioos:station:SCCF:51:1,2011-03-08T02:00:00Z,26.5545,-82.1715,1.546,33.81,1111122 
SCCF RECON,ioos:station:SCCF:51:1,2011-03-08T03:00:00Z,26.5545,-82.1715,1.597,33.83,1111122 
SCCF RECON,ioos:station:SCCF:51:1,2011-03-08T04:00:00Z,26.5545,-82.1715,1.661,33.96,1111122 
SCCF RECON,ioos:station:SCCF:51:1,2011-03-08T05:00:00Z,26.5545,-82.1715,1.746,34.09,1111122 
SCCF RECON,ioos:station:SCCF:51:1,2011-03-08T06:00:00Z,26.5545,-82.1715,1.847,34.3,1111122 
SCCF RECON,ioos:station:SCCF:51:1,2011-03-08T07:00:00Z,26.5545,-82.1715,1.904,34.31,1111122 
SCCF RECON,ioos:station:SCCF:51:1,2011-03-08T08:00:00Z,26.5545,-82.1715,1.911,34.31,1111122 
SCCF RECON,ioos:station:SCCF:51:1,2011-03-08T09:00:00Z,26.5545,-82.1715,1.863,34.28,1111122 
SCCF RECON,ioos:station:SCCF:51:1,2011-03-08T10:00:00Z,26.5545,-82.1715,1.802,33.97,1111122 
SCCF RECON,ioos:station:SCCF:51:1,2011-03-08T11:00:00Z,26.5545,-82.1715,1.742,33.84,1111122 
SCCF RECON,ioos:station:SCCF:51:1,2011-03-08T12:00:00Z,26.5545,-82.1715,1.694,33.72,1111122 
SCCF RECON,ioos:station:SCCF:51:1,2011-03-08T13:00:00Z,26.5545,-82.1715,1.687,33.67,1111122 
SCCF RECON,ioos:station:SCCF:51:1,2011-03-08T14:00:00Z,26.5545,-82.1715,1.72,33.47,1111122 
SCCF RECON,ioos:station:SCCF:51:1,2011-03-08T15:00:00Z,26.5545,-82.1715,1.779,33.64,1111122 
SCCF RECON,ioos:station:SCCF:51:1,2011-03-08T16:00:00Z,26.5545,-82.1715,1.867,33.85,1111122 
SCCF RECON,ioos:station:SCCF:51:1,2011-03-08T17:00:00Z,26.5545,-82.1715,1.96,34.23,1111122 
SCCF RECON,ioos:station:SCCF:51:1,2011-03-08T18:00:00Z,26.5545,-82.1715,2.03,34.26,1111122 
SCCF RECON,ioos:station:SCCF:51:1,2011-03-08T19:00:00Z,26.5545,-82.1715,2.068,34.21,1111122 
SCCF RECON,ioos:station:SCCF:51:1,2011-03-08T20:00:00Z,26.5545,-82.1715,2.046,34.23,1111122 
SCCF RECON,ioos:station:SCCF:51:1,2011-03-08T21:00:00Z,26.5545,-82.1715,1.979,34.07,1111122 
SCCF RECON,ioos:station:SCCF:51:1,2011-03-08T22:00:00Z,26.5545,-82.1715,1.896,33.91,1111122 
SCCF RECON,ioos:station:SCCF:51:1,2011-03-08T23:00:00Z,26.5545,-82.1715,1.791,33.81,1111122 
SCCF RECON,ioos:station:SCCF:51:1,2011-03-09T00:00:00Z,26.5545,-82.1715,1.694,33.73,1111122 
SCCF RECON,ioos:station:SCCF:51:1,2011-03-09T01:00:00Z,26.5545,-82.1715,1.592,33.57,1111122 
SCCF RECON,ioos:station:SCCF:51:1,2011-03-09T02:00:00Z,26.5545,-82.1715,1.526,33.53,1111122 
SCCF RECON,ioos:station:SCCF:51:1,2011-03-09T03:00:00Z,26.5545,-82.1715,1.491,33.49,1111122 
SCCF RECON,ioos:station:SCCF:51:1,2011-03-09T04:00:00Z,26.5545,-82.1715,1.541,33.53,1111122 
SCCF RECON,ioos:station:SCCF:51:1,2011-03-09T05:00:00Z,26.5545,-82.1715,1.637,33.59,1111122 
SCCF RECON,ioos:station:SCCF:51:1,2011-03-09T06:00:00Z,26.5545,-82.1715,1.749,33.62,1111122 
SCCF RECON,ioos:station:SCCF:51:1,2011-03-09T07:00:00Z,26.5545,-82.1715,1.846,33.94,1111122 
SCCF RECON,ioos:station:SCCF:51:1,2011-03-09T08:00:00Z,26.5545,-82.1715,1.889,33.63,1111122 
SCCF RECON,ioos:station:SCCF:51:1,2011-03-09T09:00:00Z,26.5545,-82.1715,1.878,33.69,1111122 
SCCF RECON,ioos:station:SCCF:51:1,2011-03-09T10:00:00Z,26.5545,-82.1715,1.836,33.47,1111122 
SCCF RECON,ioos:station:SCCF:51:1,2011-03-09T11:00:00Z,26.5545,-82.1715,1.799,33.42,1111122 
SCCF RECON,ioos:station:SCCF:51:1,2011-03-09T12:00:00Z,26.5545,-82.1715,1.784,33.34,1111122 
SCCF RECON,ioos:station:SCCF:51:1,2011-03-09T13:00:00Z,26.5545,-82.1715,1.794,33.37,1111122 
SCCF RECON,ioos:station:SCCF:51:1,2011-03-09T14:00:00Z,26.5545,-82.1715,1.823,33.35,1111122 
SCCF RECON,ioos:station:SCCF:51:1,2011-03-09T15:00:00Z,26.5545,-82.1715,1.85,33.34,1111122 
SCCF RECON,ioos:station:SCCF:51:1,2011-03-09T16:00:00Z,26.5545,-82.1715,1.905,33.32,1111122 
SCCF RECON,ioos:station:SCCF:51:1,2011-03-09T17:00:00Z,26.5545,-82.1715,1.982,33.43,1111122 
SCCF RECON,ioos:station:SCCF:51:1,2011-03-09T18:00:00Z,26.5545,-82.1715,2.07,33.87,1111122 
SCCF RECON,ioos:station:SCCF:51:1,2011-03-09T19:00:00Z,26.5545,-82.1715,2.148,33.91,1111122 
SCCF RECON,ioos:station:SCCF:51:1,2011-03-09T20:00:00Z,26.5545,-82.1715,2.187,34.27,1111122 
SCCF RECON,ioos:station:SCCF:51:1,2011-03-09T21:00:00Z,26.5545,-82.1715,2.164,34.12,1111122 
SCCF RECON,ioos:station:SCCF:51:1,2011-03-09T22:00:00Z,26.5545,-82.1715,2.088,33.78,1111122 
SCCF RECON,ioos:station:SCCF:51:1,2011-03-09T23:00:00Z,26.5545,-82.1715,1.992,33.4,1111122 
SCCF RECON,ioos:station:SCCF:51:1,2011-03-10T00:00:00Z,26.5545,-82.1715,1.88,33.45,1111122 
SCCF RECON,ioos:station:SCCF:51:1,2011-03-10T01:00:00Z,26.5545,-82.1715,1.766,33.45,1111122 
SCCF RECON,ioos:station:SCCF:51:1,2011-03-10T02:00:00Z,26.5545,-82.1715,1.676,33.47,1111122 
SCCF RECON,ioos:station:SCCF:51:1,2011-03-10T03:00:00Z,26.5545,-82.1715,1.619,33.47,1111122 
SCCF RECON,ioos:station:SCCF:51:1,2011-03-10T04:00:00Z,26.5545,-82.1715,1.626,33.35,1111122 
SCCF RECON,ioos:station:SCCF:51:1,2011-03-10T05:00:00Z,26.5545,-82.1715,1.691,33.39,1111122 
SCCF RECON,ioos:station:SCCF:51:1,2011-03-10T06:00:00Z,26.5545,-82.1715,1.772,33.4,1111122 
SCCF RECON,ioos:station:SCCF:51:1,2011-03-10T07:00:00Z,26.5545,-82.1715,1.846,33.44,1111122 
SCCF RECON,ioos:station:SCCF:51:1,2011-03-10T08:00:00Z,26.5545,-82.1715,1.895,33.49,1111122 
SCCF RECON,ioos:station:SCCF:51:1,2011-03-10T09:00:00Z,26.5545,-82.1715,1.882,33.48,1111122 
SCCF RECON,ioos:station:SCCF:51:1,2011-03-10T10:00:00Z,26.5545,-82.1715,1.875,33.47,1111122 
SCCF RECON,ioos:station:SCCF:51:1,2011-03-10T11:00:00Z,26.5545,-82.1715,1.851,33.53,1111122 
SCCF RECON,ioos:station:SCCF:51:1,2011-03-10T12:00:00Z,26.5545,-82.1715,1.83,33.57,1111122 
SCCF RECON,ioos:station:SCCF:51:1,2011-03-10T13:00:00Z,26.5545,-82.1715,1.813,33.59,1111122 
SCCF RECON,ioos:station:SCCF:51:1,2011-03-10T14:00:00Z,26.5545,-82.1715,1.948,33.4,1111122 
SCCF RECON,ioos:station:SCCF:51:1,2011-03-10T15:00:00Z,26.5545,-82.1715,1.837,33.43,1111122 
SCCF RECON,ioos:station:SCCF:51:1,2011-03-10T16:00:00Z,26.5545,-82.1715,1.78,33.46,1111122 
SCCF RECON,ioos:station:SCCF:51:1,2011-03-10T17:00:00Z,26.5545,-82.1715,1.851,33.39,1111122 
SCCF RECON,ioos:station:SCCF:51:1,2011-03-10T18:00:00Z,26.5545,-82.1715,1.92,33.47,1111122 
SCCF RECON,ioos:station:SCCF:51:1,2011-03-10T19:00:00Z,26.5545,-82.1715,1.993,33.84,1111122 
SCCF RECON,ioos:station:SCCF:51:1,2011-03-10T20:00:00Z,26.5545,-82.1715,2.095,34.02,1111122 
SCCF RECON,ioos:station:SCCF:51:1,2011-03-10T21:00:00Z,26.5545,-82.1715,2.072,33.97,1111122 
SCCF RECON,ioos:station:SCCF:51:1,2011-03-10T22:00:00Z,26.5545,-82.1715,2.014,33.81,1111122 
SCCF RECON,ioos:station:SCCF:51:1,2011-03-10T23:00:00Z,26.5545,-82.1715,1.938,33.46,1111122 
SCCF RECON,ioos:station:SCCF:51:1,2011-03-11T00:00:00Z,26.5545,-82.1715,1.86,33.31,1111122 
SCCF RECON,ioos:station:SCCF:51:1,2011-03-11T01:00:00Z,26.5545,-82.1715,1.773,33.24,1111122 
SCCF RECON,ioos:station:SCCF:51:1,2011-03-11T02:00:00Z,26.5545,-82.1715,1.69,33.23,1111122 
SCCF RECON,ioos:station:SCCF:51:1,2011-03-11T03:00:00Z,26.5545,-82.1715,1.611,33.22,1111122 
SCCF RECON,ioos:station:SCCF:51:1,2011-03-11T04:00:00Z,26.5545,-82.1715,1.526,33.22,1111122 
SCCF RECON,ioos:station:SCCF:51:1,2011-03-11T05:00:00Z,26.5545,-82.1715,1.472,33.23,1111122 
SCCF RECON,ioos:station:SCCF:51:1,2011-03-11T06:00:00Z,26.5545,-82.1715,1.47,33.28,1111122 
SCCF RECON,ioos:station:SCCF:51:1,2011-03-11T07:00:00Z,26.5545,-82.1715,1.521,33.35,1111122 
SCCF RECON,ioos:station:SCCF:51:1,2011-03-11T08:00:00Z,26.5545,-82.1715,1.578,33.33,1111122 
SCCF RECON,ioos:station:SCCF:51:1,2011-03-11T09:00:00Z,26.5545,-82.1715,1.649,33.55,1111122 
SCCF RECON,ioos:station:SCCF:51:1,2011-03-11T10:00:00Z,26.5545,-82.1715,1.704,33.69,1111122 
SCCF RECON,ioos:station:SCCF:51:1,2011-03-11T11:00:00Z,26.5545,-82.1715,1.686,33.61,1111122 
SCCF RECON,ioos:station:SCCF:51:1,2011-03-11T12:00:00Z,26.5545,-82.1715,1.665,33.41,1111122 
SCCF RECON,ioos:station:SCCF:51:1,2011-03-11T13:00:00Z,26.5545,-82.1715,1.638,33.35,1111122 
SCCF RECON,ioos:station:SCCF:51:1,2011-03-11T14:00:00Z,26.5545,-82.1715,1.632,33.36,1111122 
SCCF RECON,ioos:station:SCCF:51:1,2011-03-11T15:00:00Z,26.5545,-82.1715,1.668,33.44,1111122 
SCCF RECON,ioos:station:SCCF:51:1,2011-03-11T16:00:00Z,26.5545,-82.1715,1.716,33.9,1111122 